User: anonymous   Login
Location: Bühlhof
(48.7849°N, 8.6361°E)
Time: 00:03:38
(UTC+00:00)
Language:

Cosmos 2239 Rocket - Orbit

View from above orbital plane
View from above orbital plane
View from above satellite
View from above satellite

Ground track
Ground track

The orbit is defined by the following mean orbital elements,

1 22591U          26064.76785296 +.00000000 +00000-0 +48439-4 0 00002
2 22591  82.9324 187.1163 0026577  98.6065  67.2296 13.77741493    05
Epoch (UTC): 05 March 2026 18:25:42
Eccentricity: 0.0026577
inclination: 82.9324°
perigee height: 952 km
apogee height: 991 km
right ascension of ascending node: 187.1163°
argument of perigee: 98.6065°
revolutions per day: 13.77741493
mean anomaly at epoch: 67.2296°

The dashed part of the orbit path shows where the satellite is in the earth's shadow,  

DLR